Regional Weather Roundup
Issued by NWS

Home | Current Version | Previous Version | Text Only | Print | Product List | Glossary Off
Versions: 1 2 3 4 5 6 7 8 9 10 11 12 13 14 15 16 17 18 19 20 21 22 23 24 25 26 27 28 29 30 31 32 33 34 35 36 37 38 39 40 41 42 43 44 45 46 47 48 49 50

381
ASUS44 KLIX 291805
RWRLA
LOUISIANA WEATHER ROUNDUP
NATIONAL WEATHER SERVICE NEW ORLEANS LA
100 PM CDT TUE JUL 29 2014

NOTE: "FAIR" INDICATES FEW OR NO CLOUDS BELOW 12,000 FEET WITH NO
      SIGNIFICANT WEATHER AND/OR OBSTRUCTIONS TO VISIBILITY.
      SKY/WX - SKY CONDITION AND SIGNIFICANT WEATHER.
      TMP - AIR TEMPERATURE.    DP   - DEWPOINT TEMPERATURE.
      RH  - RELATIVE HUMIDITY.  PRES - PRESSURE.
      HX  - HEAT INDEX.         WCI  - WIND CHILL INDEX.

*  THESE STATIONS ARE NOT NWS OR FAA STATIONS AND ARE NOT UNDER
   NWS QUALITY CONTROL.

LAZ040-048-061>063-065-066-069-291900-
SOUTHEAST LOUISIANA

CITY           SKY/WX    TMP DP  RH WIND       PRES   REMARKS
N.O. AUDUBON     N/A     90  69  48 MISG        N/A
6HR MIN TEMP:  81; 6HR MAX TEMP:  90;

N.O. INTL ARPT PTSUNNY   89  68  49 NE8       30.07F
6HR MIN TEMP:  80; 6HR MAX TEMP:  90;

N.O. LAKEFRONT PTSUNNY   85  65  51 N7        30.07F
6HR MIN TEMP:  80; 6HR MAX TEMP:  85;

N.O. DOWNTOWN* FAIR      84  64  51 NE5       30.07F
6HR MIN TEMP:  81; 6HR MAX TEMP:  86;

SLIDELL        PTSUNNY   86  67  52 VRB5      30.06F
6HR MIN TEMP:  72; 6HR MAX TEMP:  87;

BATON ROUGE    MOSUNNY   87  66  49 MISG      30.08F
6HR MIN TEMP:  74; 6HR MAX TEMP:  87;

BOOTHVILLE     PTSUNNY   84  70  62 VRB6      30.06F
6HR MIN TEMP:  81; 6HR MAX TEMP:  85;

BELLE CHASSE   PTSUNNY   86  66  51 NE8       30.05F
6HR MIN TEMP:  78; 6HR MAX TEMP:  87;

BOGALUSA*      FAIR      87  63  45 NE5       30.08F
6HR MIN TEMP:  71; 6HR MAX TEMP:  87;

GALLIANO*      NOT AVBL
NEW ROADS*     FAIR      84  66  54 N5        30.08F
6HR MIN TEMP:  74; 6HR MAX TEMP:  84;

GONZALES*      FAIR      84  69  60 E3        30.07S
6HR MIN TEMP:  75; 6HR MAX TEMP:  84;

HAMMOND*       MOSUNNY   90  63  40 N6        30.08F
HOUMA*         PTSUNNY   88  66  48 NE3       30.07
PORT FOURCHON* PTCLDY    88  72  58 N5        30.07F

$$

LAZ041-044-053-054-291900-
SOUTHWEST LOUISIANA

CITY           SKY/WX    TMP DP  RH WIND       PRES   REMARKS
LAKE CHARLES   MOSUNNY   88  68  51 VRB6      30.07F
6HR MIN TEMP:  78; 6HR MAX TEMP:  89;

LAFAYETTE      MOSUNNY   87  69  54 NE9       30.07F
6HR MIN TEMP:  79; 6HR MAX TEMP:  87;

PATTERSON      CLOUDY    84  70  61 NE6       30.11F
6HR MIN TEMP:  77; 6HR MAX TEMP:  86;

SALT POINT       N/A     88  73  61 E3        30.06F HX  95
6HR MIN TEMP:  79; 6HR MAX TEMP:  88;

NEW IBERIA     PTSUNNY   86  69  56 NE7       30.08F
6HR MIN TEMP:  78; 6HR MAX TEMP:  87;

CHENAULT AIRPK PTSUNNY   88  66  48 NE6       30.03F

$$

LAZ027-028-291900-
CENTRAL LOUISIANA

CITY           SKY/WX    TMP DP  RH WIND       PRES   REMARKS
FORT POLK      CLOUDY    85  66  53 E5        30.10F
6HR MIN TEMP:  74; 6HR MAX TEMP:  85;

ALEXANDRIA INT MOSUNNY   89  64  43 VRB7      30.08F
6HR MIN TEMP:  72; 6HR MAX TEMP:  89;

ALEXANDRIA     MOSUNNY   89  64  43 VRB7      30.09F
6HR MIN TEMP:  70; 6HR MAX TEMP:  89;


$$

LAZ001-002-291900-
NORTHWEST LOUISIANA

CITY           SKY/WX    TMP DP  RH WIND       PRES   REMARKS
SHREVEPORT     MOSUNNY   90  60  36 N8        30.10F
6HR MIN TEMP:  74; 6HR MAX TEMP:  90;

BARKSDALE AFB  SUNNY     88  63  43 N5        30.10F
6HR MIN TEMP:  71; 6HR MAX TEMP:  88;

DTN SHREVEPORT SUNNY     88  63  43 N5        30.10F
6HR MIN TEMP:  71; 6HR MAX TEMP:  88;


$$

LAZ014-016-291900-
NORTHEAST LOUISIANA

CITY           SKY/WX    TMP DP  RH WIND       PRES   REMARKS
MONROE         PTSUNNY   86  64  47 NW6       30.09F
6HR MIN TEMP:  68; 6HR MAX TEMP:  88;

TALLULAH       SUNNY     88  64  44 VRB6      30.08F
6HR MIN TEMP:  64; 6HR MAX TEMP:  88;


$$




USA.gov is the U.S. government's official web portal to all federal, state and local government web resources and services.